Regional Weather Roundup
Issued by NWS

Home | Current Version | Previous Version | Graphics & Text | Print | Product List | Glossary On
Versions: 1 2 3 4 5 6 7 8 9 10 11 12 13 14 15 16 17 18 19 20 21 22 23 24 25 26 27 28 29 30 31 32 33 34 35 36 37 38 39 40 41 42 43 44 45 46 47 48 49 50
000
ASUS43 KIND 271559
RWRIN

WEATHER ROUNDUP FOR INDIANA
NATIONAL WEATHER SERVICE INDIANAPOLIS IN
1200 PM EDT MON APR 27 2015

NOTE: "FAIR" INDICATES FEW OR NO CLOUDS BELOW 12,000 FEET WITH NO
SIGNIFICANT WEATHER AND/OR OBSTRUCTIONS TO VISIBILITY.

* - STATION DOES NOT REPORT WEATHER SUCH AS PRECIPITATION OR FOG.

+ - STATION NOT QUALITY CONTROLLED BY THE NATIONAL WEATHER SERVICE.
    USE DATA WITH CAUTION...ESPECIALLY DEWPOINT AND RELATIVE
    HUMIDITY OBSERVATIONS.

INZ001>003-010>013-019-020-271700-
NORTHWEST INDIANA

CITY           SKY/WX    TMP DP  RH WIND       PRES   REMARKS
GARY /AIRPORT/ MOSUNNY   50  32  50 N24       30.13S

$$

LMZ046-743>745-271700-
SOUTHERN LAKE MICHIGAN

STATION/POSITION TIME  TEMP    WIND        PRES    WAVE
                       AIR SEA DIR/SP/G            HT
                 (UTC) (F)     (DEG/KT/KT) (MB)    (FT)
BURNS HARBOR     1500   42     340/ 17/ 21 1020.3R
MICHIGAN CITY    1500   41     320/ 21/ 23   N/A
5NW MICH CITY    1500   40 45  340/ 16/ 21   N/A     4

$$

INZ004-005-014>016-021>024-271700-
NORTH CENTRAL INDIANA

CITY           SKY/WX    TMP DP  RH WIND       PRES   REMARKS
ELKHART        PTSUNNY   50  32  50 NW12G20   30.05
GOSHEN         PTSUNNY   51  37  58 NW14G22   30.03S
SOUTH BEND     CLOUDY    50  36  58 NW17      30.08R

$$

INZ006>009-017-018-025>027-271700-
NORTHEAST INDIANA

CITY           SKY/WX    TMP DP  RH WIND       PRES   REMARKS
ANGOLA *+      PTSUNNY   52  39  62 NW12      30.01S
FORT WAYNE     PTSUNNY   53  37  54 NW13      30.02S

$$

INZ028-029-035-036-043>045-051>053-271700-
WEST CENTRAL INDIANA

CITY           SKY/WX    TMP DP  RH WIND       PRES   REMARKS
GREENCASTLE +  SUNNY     52  32  46 N14G21    30.06R
LAFAYETTE      MOSUNNY   51  36  56 N15G24    30.07R
TERRE HAUTE    SUNNY     54  37  52 N14       30.07R

$$

INZ030>032-037>040-046>048-054>057-064-065-271700-
CENTRAL INDIANA

CITY           SKY/WX    TMP DP  RH WIND       PRES   REMARKS
FRANKFORT +    SUNNY     53  38  58 NW17      30.06S
GREENWOOD *+   SUNNY     54  34  47 N12G17    30.03R
INDIANAPOLIS   MOSUNNY   54  35  48 N15       30.02R
-EAGLE CREEK   SUNNY     52  37  56 N13       30.02S
KOKOMO *+      SUNNY     54  37  54 N17       30.02S
MT COMFORT *+  SUNNY     54  30  40 N14G21    30.01F
SHELBYVILLE    SUNNY     56  37  49 N16G22    30.01R

$$

INZ033-034-041-042-049-050-058-059-271700-
EAST CENTRAL INDIANA

CITY           SKY/WX    TMP DP  RH WIND       PRES   REMARKS
MUNCIE         SUNNY     52  37  56 N12       30.00F

$$

INZ060-061-067>069-081>083-085>088-271700-
SOUTHWEST INDIANA

CITY           SKY/WX    TMP DP  RH WIND       PRES   REMARKS
EVANSVILLE     MOSUNNY   56  35  45 NE10      30.09R
HUNTINGBURG *+ MOSUNNY   55  36  47 N3        30.07R

$$

INZ062-063-066-070>080-084-089>092-271700-
SOUTH CENTRAL AND SOUTHEAST INDIANA

CITY           SKY/WX    TMP DP  RH WIND       PRES   REMARKS
BLOOMINGTON    SUNNY     57  37  47 N10       30.04R
MADISON *+     SUNNY     57  32  38 N7        30.03R
SEYMOUR +      SUNNY     57  36  44 CALM      30.03R

$$




USA.gov is the U.S. government's official web portal to all federal, state and local government web resources and services.